Tabellarische Ansicht des 1.1.2020


Die einzelnen Werte des Tages

Uhrzeit Temperatur Luftdruck Luftfeuchte Wind Hi-Wind Taupunkt THW Index Wind Chill Heat Index Solar- strahlung Regen

00:00

0.8 C

1032.3 hpa

88 %

3.2 km/h aus 116

3.2 km/h aus SSE

-1.0 C

0.2 C

0.3 C

0.7 C

0 W/m

0.00 mm

00:05

0.7 C

1032.3 hpa

88 %

3.2 km/h aus 116

3.2 km/h aus SSE

-1.0 C

0.1 C

0.2 C

0.6 C

0 W/m

0.00 mm

00:10

0.6 C

1032.3 hpa

88 %

1.6 km/h aus 115

3.2 km/h aus SSE

-1.1 C

0.5 C

0.6 C

0.5 C

0 W/m

0.00 mm

00:15

0.6 C

1032.5 hpa

88 %

0.0 km/h aus 117

3.2 km/h aus SSE

-1.2 C

0.4 C

0.6 C

0.4 C

0 W/m

0.00 mm

00:20

0.5 C

1032.5 hpa

88 %

0.0 km/h aus 116

1.6 km/h aus SSE

-1.3 C

0.4 C

0.5 C

0.4 C

0 W/m

0.00 mm

00:25

0.4 C

1032.5 hpa

88 %

0.0 km/h aus 117

1.6 km/h aus SSE

-1.3 C

0.3 C

0.4 C

0.3 C

0 W/m

0.00 mm

00:30

0.4 C

1032.4 hpa

88 %

0.0 km/h aus 115

1.6 km/h aus SSE

-1.4 C

0.3 C

0.4 C

0.3 C

0 W/m

0.00 mm

00:35

0.3 C

1032.4 hpa

88 %

0.0 km/h aus 113

0.0 km/h aus ---

-1.4 C

0.2 C

0.3 C

0.2 C

0 W/m

0.00 mm

00:40

0.3 C

1032.4 hpa

88 %

0.0 km/h aus 115

0.0 km/h aus ---

-1.5 C

0.2 C

0.3 C

0.2 C

0 W/m

0.00 mm

00:45

0.2 C

1032.3 hpa

88 %

0.0 km/h aus 117

0.0 km/h aus ---

-1.6 C

0.1 C

0.2 C

0.1 C

0 W/m

0.00 mm

00:50

0.2 C

1032.3 hpa

89 %

0.0 km/h aus 117

0.0 km/h aus ---

-1.4 C

0.1 C

0.2 C

0.1 C

0 W/m

0.00 mm

00:55

0.1 C

1032.3 hpa

89 %

0.0 km/h aus 117

0.0 km/h aus ---

-1.5 C

0.1 C

0.1 C

0.1 C

0 W/m

0.00 mm

01:00

0.0 C

1032.3 hpa

89 %

0.0 km/h aus 118

0.0 km/h aus ---

-1.6 C

-0.1 C

0.0 C

-0.1 C

0 W/m

0.00 mm

01:05

-0.1 C

1032.3 hpa

89 %

0.0 km/h aus 117

0.0 km/h aus ---

-1.7 C

-0.1 C

-0.1 C

-0.1 C

0 W/m

0.00 mm

01:10

-0.2 C

1032.3 hpa

89 %

0.0 km/h aus 117

0.0 km/h aus ---

-1.8 C

-0.2 C

-0.2 C

-0.2 C

0 W/m

0.00 mm

01:15

-0.2 C

1032.1 hpa

89 %

0.0 km/h aus 114

0.0 km/h aus ---

-1.8 C

-0.3 C

-0.2 C

-0.3 C

0 W/m

0.00 mm

01:20

-0.3 C

1032.1 hpa

89 %

0.0 km/h aus 113

0.0 km/h aus ---

-1.9 C

-0.4 C

-0.3 C

-0.4 C

0 W/m

0.00 mm

01:25

-0.3 C

1032.1 hpa

89 %

0.0 km/h aus 115

0.0 km/h aus ---

-1.9 C

-0.4 C

-0.3 C

-0.4 C

0 W/m

0.00 mm

01:30

-0.4 C

1032.2 hpa

89 %

0.0 km/h aus 117

0.0 km/h aus ---

-2.0 C

-0.6 C

-0.4 C

-0.6 C

0 W/m

0.00 mm

01:35

-0.5 C

1032.2 hpa

89 %

0.0 km/h aus 117

0.0 km/h aus ---

-2.1 C

-0.6 C

-0.5 C

-0.6 C

0 W/m

0.00 mm

01:40

-0.6 C

1032.2 hpa

89 %

0.0 km/h aus 117

0.0 km/h aus ---

-2.1 C

-0.7 C

-0.6 C

-0.7 C

0 W/m

0.00 mm

01:45

-0.6 C

1032.0 hpa

89 %

0.0 km/h aus 117

0.0 km/h aus ---

-2.2 C

-0.7 C

-0.6 C

-0.7 C

0 W/m

0.00 mm

01:50

-0.7 C

1032.0 hpa

89 %

0.0 km/h aus 116

3.2 km/h aus SSE

-2.3 C

-0.8 C

-0.7 C

-0.8 C

0 W/m

0.00 mm

01:55

-0.7 C

1032.0 hpa

89 %

3.2 km/h aus 117

8.0 km/h aus S

-2.3 C

-1.5 C

-1.4 C

-0.8 C

0 W/m

0.00 mm

02:00

-0.7 C

1032.0 hpa

89 %

3.2 km/h aus 116

4.8 km/h aus SSE

-2.3 C

-1.5 C

-1.4 C

-0.8 C

0 W/m

0.00 mm

02:05

-0.8 C

1032.0 hpa

90 %

4.8 km/h aus 113

6.4 km/h aus SSE

-2.2 C

-2.5 C

-2.4 C

-0.9 C

0 W/m

0.00 mm

02:10

-0.7 C

1032.0 hpa

90 %

3.2 km/h aus 115

4.8 km/h aus SSE

-2.2 C

-1.5 C

-1.4 C

-0.8 C

0 W/m

0.00 mm

02:15

-0.7 C

1031.8 hpa

90 %

4.8 km/h aus 117

6.4 km/h aus SSE

-2.2 C

-2.4 C

-2.3 C

-0.8 C

0 W/m

0.00 mm

02:20

-0.7 C

1031.8 hpa

90 %

3.2 km/h aus 116

4.8 km/h aus SSE

-2.1 C

-1.4 C

-1.3 C

-0.8 C

0 W/m

0.00 mm

02:25

-0.6 C

1031.8 hpa

91 %

1.6 km/h aus 117

4.8 km/h aus SSE

-1.8 C

-0.7 C

-0.6 C

-0.7 C

0 W/m

0.00 mm

02:30

-0.4 C

1031.8 hpa

91 %

4.8 km/h aus 116

6.4 km/h aus SSE

-1.7 C

-2.1 C

-2.0 C

-0.6 C

0 W/m

0.00 mm

02:35

-0.2 C

1031.8 hpa

91 %

4.8 km/h aus 117

6.4 km/h aus SSE

-1.5 C

-1.8 C

-1.7 C

-0.3 C

0 W/m

0.00 mm

02:40

-0.1 C

1031.8 hpa

92 %

3.2 km/h aus 117

4.8 km/h aus SE

-1.2 C

-0.7 C

-0.6 C

-0.1 C

0 W/m

0.00 mm

02:45

0.1 C

1031.8 hpa

92 %

4.8 km/h aus 115

6.4 km/h aus SE

-1.1 C

-1.5 C

-1.4 C

0.0 C

0 W/m

0.00 mm

02:50

0.2 C

1031.8 hpa

92 %

6.4 km/h aus 114

8.0 km/h aus SE

-1.0 C

-2.1 C

-2.0 C

0.1 C

0 W/m

0.00 mm

02:55

0.2 C

1031.8 hpa

92 %

4.8 km/h aus 114

9.7 km/h aus S

-0.9 C

-1.3 C

-1.2 C

0.2 C

0 W/m

0.00 mm

03:00

0.4 C

1031.3 hpa

92 %

6.4 km/h aus 117

12.9 km/h aus SSE

-0.7 C

-1.7 C

-1.7 C

0.4 C

0 W/m

0.00 mm

03:05

0.7 C

1031.3 hpa

93 %

6.4 km/h aus 117

9.7 km/h aus SSE

-0.3 C

-1.4 C

-1.4 C

0.6 C

0 W/m

0.00 mm

03:10

0.8 C

1031.3 hpa

93 %

6.4 km/h aus 117

9.7 km/h aus S

-0.2 C

-1.3 C

-1.3 C

0.7 C

0 W/m

0.00 mm

03:15

0.8 C

1031.3 hpa

93 %

4.8 km/h aus 116

6.4 km/h aus SE

-0.2 C

-0.6 C

-0.6 C

0.8 C

0 W/m

0.00 mm

03:20

0.8 C

1031.3 hpa

93 %

4.8 km/h aus 88

6.4 km/h aus SE

-0.2 C

-0.6 C

-0.6 C

0.8 C

0 W/m

0.00 mm

03:25

0.8 C

1031.3 hpa

93 %

1.6 km/h aus 115

6.4 km/h aus SE

-0.2 C

0.8 C

0.8 C

0.8 C

0 W/m

0.00 mm

03:30

0.8 C

1031.3 hpa

93 %

0.0 km/h aus 114

0.0 km/h aus ---

-0.2 C

0.8 C

0.8 C

0.8 C

0 W/m

0.00 mm

03:35

0.8 C

1031.3 hpa

93 %

0.0 km/h aus 114

0.0 km/h aus ---

-0.2 C

0.7 C

0.8 C

0.7 C

0 W/m

0.00 mm

03:40

0.7 C

1031.3 hpa

93 %

0.0 km/h aus 114

0.0 km/h aus ---

-0.3 C

0.7 C

0.7 C

0.7 C

0 W/m

0.00 mm

03:45

0.7 C

1031.2 hpa

93 %

1.6 km/h aus 117

6.4 km/h aus SSE

-0.3 C

0.7 C

0.7 C

0.7 C

0 W/m

0.00 mm

03:50

0.7 C

1031.2 hpa

93 %

3.2 km/h aus 117

6.4 km/h aus SSE

-0.3 C

0.1 C

0.2 C

0.6 C

0 W/m

0.00 mm

03:55

0.7 C

1031.2 hpa

93 %

3.2 km/h aus 116

6.4 km/h aus SSE

-0.3 C

0.1 C

0.2 C

0.6 C

0 W/m

0.00 mm

04:00

0.7 C

1031.2 hpa

93 %

4.8 km/h aus 117

8.0 km/h aus S

-0.3 C

-0.8 C

-0.7 C

0.6 C

0 W/m

0.00 mm

04:05

0.7 C

1031.2 hpa

93 %

1.6 km/h aus 117

4.8 km/h aus S

-0.3 C

0.6 C

0.7 C

0.6 C

0 W/m

0.00 mm

04:10

0.7 C

1031.2 hpa

93 %

3.2 km/h aus 114

4.8 km/h aus S

-0.3 C

0.2 C

0.2 C

0.7 C

0 W/m

0.00 mm

04:15

0.7 C

1031.3 hpa

93 %

6.4 km/h aus 115

8.0 km/h aus SSE

-0.3 C

-1.4 C

-1.4 C

0.6 C

0 W/m

0.00 mm

04:20

0.7 C

1031.3 hpa

93 %

4.8 km/h aus 117

6.4 km/h aus SSE

-0.3 C

-0.8 C

-0.7 C

0.6 C

0 W/m

0.00 mm

04:25

0.7 C

1031.3 hpa

93 %

1.6 km/h aus 117

4.8 km/h aus SE

-0.3 C

0.6 C

0.7 C

0.6 C

0 W/m

0.00 mm

04:30

0.6 C

1031.3 hpa

93 %

0.0 km/h aus 116

0.0 km/h aus ---

-0.4 C

0.6 C

0.6 C

0.6 C

0 W/m

0.00 mm

04:35

0.6 C

1031.3 hpa

93 %

0.0 km/h aus 117

0.0 km/h aus ---

-0.4 C

0.5 C

0.6 C

0.5 C

0 W/m

0.00 mm

04:40

0.5 C

1031.3 hpa

94 %

0.0 km/h aus 117

0.0 km/h aus ---

-0.4 C

0.4 C

0.5 C

0.4 C

0 W/m

0.00 mm

04:45

0.4 C

1031.2 hpa

93 %

0.0 km/h aus 117

0.0 km/h aus ---

-0.6 C

0.4 C

0.4 C

0.4 C

0 W/m

0.00 mm

04:50

0.4 C

1031.2 hpa

93 %

0.0 km/h aus 113

0.0 km/h aus ---

-0.6 C

0.3 C

0.4 C

0.3 C

0 W/m

0.00 mm

04:55

0.3 C

1031.2 hpa

94 %

0.0 km/h aus 114

0.0 km/h aus ---

-0.5 C

0.3 C

0.3 C

0.3 C

0 W/m

0.00 mm

05:00

0.3 C

1031.3 hpa

94 %

0.0 km/h aus 116

0.0 km/h aus ---

-0.5 C

0.3 C

0.3 C

0.3 C

0 W/m

0.00 mm

05:05

0.3 C

1031.3 hpa

94 %

3.2 km/h aus 117

8.0 km/h aus ESE

-0.6 C

-0.3 C

-0.3 C

0.2 C

0 W/m

0.00 mm

05:10

0.2 C

1031.3 hpa

94 %

3.2 km/h aus 117

8.0 km/h aus SE

-0.6 C

-0.4 C

-0.3 C

0.2 C

0 W/m

0.00 mm

05:15

0.2 C

1031.3 hpa

94 %

3.2 km/h aus 117

6.4 km/h aus SE

-0.7 C

-0.4 C

-0.4 C

0.1 C

0 W/m

0.00 mm

05:20

0.2 C

1031.3 hpa

94 %

3.2 km/h aus 117

4.8 km/h aus SE

-0.7 C

-0.4 C

-0.4 C

0.1 C

0 W/m

0.00 mm

05:25

0.2 C

1031.3 hpa

94 %

3.2 km/h aus 118

6.4 km/h aus SE

-0.7 C

-0.4 C

-0.4 C

0.1 C

0 W/m

0.00 mm

05:30

0.1 C

1031.3 hpa

94 %

1.6 km/h aus 114

4.8 km/h aus SE

-0.7 C

0.1 C

0.1 C

0.1 C

0 W/m

0.00 mm

05:35

0.1 C

1031.3 hpa

94 %

1.6 km/h aus 114

4.8 km/h aus SE

-0.8 C

0.0 C

0.1 C

0.0 C

0 W/m

0.00 mm

05:40

0.0 C

1031.3 hpa

94 %

3.2 km/h aus 114

4.8 km/h aus SE

-0.9 C

-0.6 C

-0.6 C

-0.1 C

0 W/m

0.00 mm

05:45

0.0 C

1030.9 hpa

94 %

1.6 km/h aus 117

6.4 km/h aus SE

-0.9 C

-0.1 C

0.0 C

-0.1 C

0 W/m

0.00 mm

05:50

0.0 C

1030.9 hpa

94 %

4.8 km/h aus 117

6.4 km/h aus S

-0.9 C

-1.6 C

-1.5 C

-0.1 C

0 W/m

0.00 mm

05:55

-0.1 C

1030.9 hpa

94 %

4.8 km/h aus 117

6.4 km/h aus S

-0.9 C

-1.6 C

-1.6 C

-0.1 C

0 W/m

0.00 mm

06:00

-0.1 C

1031.0 hpa

94 %

1.6 km/h aus 117

4.8 km/h aus S

-0.9 C

-0.1 C

-0.1 C

-0.1 C

0 W/m

0.00 mm

06:05

0.0 C

1031.0 hpa

94 %

1.6 km/h aus 117

4.8 km/h aus SSE

-0.9 C

-0.1 C

0.0 C

-0.1 C

0 W/m

0.00 mm

06:10

0.0 C

1031.0 hpa

94 %

3.2 km/h aus 115

6.4 km/h aus SE

-0.9 C

-0.6 C

-0.6 C

-0.1 C

0 W/m

0.00 mm

06:15

-0.1 C

1031.3 hpa

94 %

1.6 km/h aus 114

4.8 km/h aus SE

-0.9 C

-0.1 C

-0.1 C

-0.1 C

0 W/m

0.00 mm

06:20

-0.1 C

1031.3 hpa

94 %

0.0 km/h aus 113

3.2 km/h aus SE

-0.9 C

-0.1 C

-0.1 C

-0.1 C

0 W/m

0.00 mm

06:25

-0.1 C

1031.3 hpa

94 %

0.0 km/h aus 116

1.6 km/h aus SE

-0.9 C

-0.1 C

-0.1 C

-0.1 C

0 W/m

0.00 mm

06:30

-0.1 C

1031.3 hpa

94 %

0.0 km/h aus 118

0.0 km/h aus ---

-0.9 C

-0.1 C

-0.1 C

-0.1 C

0 W/m

0.00 mm

06:35

-0.1 C

1031.3 hpa

94 %

0.0 km/h aus 117

0.0 km/h aus ---

-1.0 C

-0.2 C

-0.1 C

-0.2 C

0 W/m

0.00 mm

06:40

-0.1 C

1031.3 hpa

94 %

0.0 km/h aus 117

1.6 km/h aus SE

-1.0 C

-0.2 C

-0.1 C

-0.2 C

0 W/m

0.00 mm

06:45

-0.1 C

1031.3 hpa

94 %

0.0 km/h aus 117

0.0 km/h aus ---

-1.0 C

-0.2 C

-0.1 C

-0.2 C

0 W/m

0.00 mm

06:50

-0.2 C

1031.3 hpa

94 %

0.0 km/h aus 115

0.0 km/h aus ---

-1.0 C

-0.2 C

-0.2 C

-0.2 C

0 W/m

0.00 mm

06:55

-0.2 C

1031.3 hpa

94 %

0.0 km/h aus 114

0.0 km/h aus ---

-1.0 C

-0.2 C

-0.2 C

-0.2 C

0 W/m

0.00 mm

07:00

-0.2 C

1031.2 hpa

94 %

0.0 km/h aus 114

0.0 km/h aus ---

-1.0 C

-0.2 C

-0.2 C

-0.2 C

0 W/m

0.00 mm

07:05

-0.2 C

1031.2 hpa

94 %

0.0 km/h aus 117

0.0 km/h aus ---

-1.1 C

-0.3 C

-0.2 C

-0.3 C

0 W/m

0.00 mm

07:10

-0.2 C

1031.2 hpa

94 %

0.0 km/h aus 117

0.0 km/h aus ---

-1.1 C

-0.3 C

-0.2 C

-0.3 C

0 W/m

0.00 mm

07:15

-0.3 C

1031.2 hpa

94 %

1.6 km/h aus 117

3.2 km/h aus SE

-1.1 C

-0.3 C

-0.3 C

-0.3 C

0 W/m

0.00 mm

07:20

-0.3 C

1031.2 hpa

94 %

1.6 km/h aus 116

3.2 km/h aus SE

-1.1 C

-0.3 C

-0.3 C

-0.3 C

0 W/m

0.00 mm

07:25

-0.3 C

1031.2 hpa

94 %

0.0 km/h aus 117

1.6 km/h aus SE

-1.2 C

-0.4 C

-0.3 C

-0.4 C

0 W/m

0.00 mm

07:30

-0.4 C

1031.0 hpa

94 %

0.0 km/h aus 116

3.2 km/h aus SE

-1.2 C

-0.4 C

-0.4 C

-0.4 C

0 W/m

0.00 mm

07:35

-0.4 C

1031.0 hpa

94 %

1.6 km/h aus 115

3.2 km/h aus SE

-1.3 C

-0.5 C

-0.4 C

-0.5 C

0 W/m

0.00 mm

07:40

-0.6 C

1031.0 hpa

94 %

1.6 km/h aus 113

3.2 km/h aus SE

-1.4 C

-0.6 C

-0.6 C

-0.6 C

0 W/m

0.00 mm

07:45

-0.6 C

1031.2 hpa

94 %

0.0 km/h aus 116

3.2 km/h aus SE

-1.5 C

-0.7 C

-0.6 C

-0.7 C

0 W/m

0.00 mm

07:50

-0.7 C

1031.2 hpa

94 %

0.0 km/h aus 117

3.2 km/h aus SE

-1.5 C

-0.7 C

-0.7 C

-0.7 C

0 W/m

0.00 mm

07:55

-0.7 C

1031.2 hpa

94 %

0.0 km/h aus 115

0.0 km/h aus ---

-1.6 C

-0.8 C

-0.7 C

-0.8 C

0 W/m

0.00 mm

08:00

-0.8 C

1031.1 hpa

94 %

0.0 km/h aus 117

3.2 km/h aus SE

-1.6 C

-0.8 C

-0.8 C

-0.8 C

0 W/m

0.00 mm

08:05

-0.8 C

1031.1 hpa

94 %

1.6 km/h aus 116

3.2 km/h aus SE

-1.7 C

-0.9 C

-0.8 C

-0.9 C

0 W/m

0.00 mm

08:10

-0.9 C

1031.1 hpa

94 %

3.2 km/h aus 117

4.8 km/h aus SE

-1.7 C

-1.6 C

-1.6 C

-0.9 C

0 W/m

0.00 mm

08:15

-1.0 C

1030.9 hpa

94 %

4.8 km/h aus 117

6.4 km/h aus SE

-1.8 C

-2.7 C

-2.6 C

-1.1 C

0 W/m

0.00 mm

08:20

-1.1 C

1030.9 hpa

94 %

3.2 km/h aus 114

4.8 km/h aus SE

-2.0 C

-1.8 C

-1.8 C

-1.2 C

0 W/m

0.00 mm

08:25

-1.2 C

1030.9 hpa

94 %

3.2 km/h aus 114

4.8 km/h aus SE

-2.0 C

-1.9 C

-1.8 C

-1.2 C

4 W/m

0.00 mm

08:30

-1.3 C

1030.9 hpa

94 %

3.2 km/h aus 116

4.8 km/h aus SE

-2.1 C

-2.1 C

-2.0 C

-1.3 C

7 W/m

0.00 mm

08:35

-1.4 C

1030.9 hpa

94 %

1.6 km/h aus 116

3.2 km/h aus SE

-2.2 C

-1.4 C

-1.4 C

-1.4 C

10 W/m

0.00 mm

08:40

-1.5 C

1030.9 hpa

94 %

0.0 km/h aus 117

1.6 km/h aus SE

-2.3 C

-1.6 C

-1.5 C

-1.6 C

12 W/m

0.00 mm

08:45

-1.6 C

1030.9 hpa

94 %

0.0 km/h aus 116

0.0 km/h aus ---

-2.4 C

-1.6 C

-1.6 C

-1.6 C

16 W/m

0.00 mm

08:50

-1.6 C

1030.9 hpa

94 %

0.0 km/h aus 116

0.0 km/h aus ---

-2.5 C

-1.7 C

-1.6 C

-1.7 C

21 W/m

0.00 mm

08:55

-1.7 C

1030.9 hpa

94 %

0.0 km/h aus 117

0.0 km/h aus ---

-2.5 C

-1.7 C

-1.7 C

-1.7 C

26 W/m

0.00 mm

09:00

-1.7 C

1031.0 hpa

94 %

0.0 km/h aus 117

1.6 km/h aus SE

-2.6 C

-1.8 C

-1.7 C

-1.8 C

29 W/m

0.00 mm

09:05

-1.8 C

1031.0 hpa

94 %

0.0 km/h aus 115

0.0 km/h aus ---

-2.6 C

-1.8 C

-1.8 C

-1.8 C

31 W/m

0.00 mm

09:10

-1.8 C

1031.0 hpa

94 %

0.0 km/h aus 114

0.0 km/h aus ---

-2.6 C

-1.8 C

-1.8 C

-1.8 C

31 W/m

0.00 mm

09:15

-1.8 C

1030.9 hpa

94 %

0.0 km/h aus 113

0.0 km/h aus ---

-2.6 C

-1.8 C

-1.8 C

-1.8 C

37 W/m

0.00 mm

09:20

-1.8 C

1030.9 hpa

94 %

0.0 km/h aus 117

0.0 km/h aus ---

-2.7 C

-1.9 C

-1.8 C

-1.9 C

39 W/m

0.00 mm

09:25

-1.8 C

1030.9 hpa

94 %

0.0 km/h aus 117

0.0 km/h aus ---

-2.7 C

-1.9 C

-1.8 C

-1.9 C

45 W/m

0.00 mm

09:30

-1.8 C

1030.9 hpa

94 %

0.0 km/h aus 115

0.0 km/h aus ---

-2.6 C

-1.8 C

-1.8 C

-1.8 C

48 W/m

0.00 mm

09:35

-1.8 C

1030.9 hpa

94 %

0.0 km/h aus 117

0.0 km/h aus ---

-2.6 C

-1.8 C

-1.8 C

-1.8 C

51 W/m

0.00 mm

09:40

-1.8 C

1030.9 hpa

94 %

0.0 km/h aus 117

0.0 km/h aus ---

-2.6 C

-1.8 C

-1.8 C

-1.8 C

62 W/m

0.00 mm

09:45

-1.8 C

1030.8 hpa

94 %

0.0 km/h aus 117

0.0 km/h aus ---

-2.6 C

-1.8 C

-1.8 C

-1.8 C

62 W/m

0.00 mm

09:50

-1.8 C

1030.8 hpa

94 %

0.0 km/h aus 118

0.0 km/h aus ---

-2.7 C

-1.9 C

-1.8 C

-1.9 C

61 W/m

0.00 mm

09:55

-1.8 C

1030.8 hpa

94 %

0.0 km/h aus 114

0.0 km/h aus ---

-2.7 C

-1.9 C

-1.8 C

-1.9 C

68 W/m

0.00 mm

10:00

-1.8 C

1030.8 hpa

94 %

0.0 km/h aus 114

0.0 km/h aus ---

-2.7 C

-1.9 C

-1.8 C

-1.9 C

75 W/m

0.00 mm

10:05

-1.8 C

1030.8 hpa

94 %

0.0 km/h aus 115

0.0 km/h aus ---

-2.7 C

-1.9 C

-1.8 C

-1.9 C

79 W/m

0.00 mm

10:10

-1.8 C

1030.8 hpa

95 %

0.0 km/h aus 116

0.0 km/h aus ---

-2.5 C

-1.9 C

-1.8 C

-1.9 C

84 W/m

0.00 mm

10:15

-1.8 C

1030.8 hpa

95 %

1.6 km/h aus 116

4.8 km/h aus NNE

-2.5 C

-1.8 C

-1.8 C

-1.8 C

87 W/m

0.00 mm

10:20

-1.6 C

1030.8 hpa

95 %

0.0 km/h aus 117

0.0 km/h aus ---

-2.3 C

-1.7 C

-1.6 C

-1.7 C

97 W/m

0.00 mm

10:25

-1.6 C

1030.8 hpa

95 %

3.2 km/h aus 115

4.8 km/h aus N

-2.3 C

-2.4 C

-2.3 C

-1.7 C

92 W/m

0.00 mm

10:30

-1.7 C

1030.8 hpa

95 %

4.8 km/h aus 116

6.4 km/h aus N

-2.4 C

-3.4 C

-3.4 C

-1.7 C

95 W/m

0.00 mm

10:35

-1.7 C

1030.8 hpa

95 %

4.8 km/h aus 116

6.4 km/h aus N

-2.4 C

-3.5 C

-3.4 C

-1.8 C

97 W/m

0.00 mm

10:40

-1.7 C

1030.8 hpa

95 %

1.6 km/h aus 115

4.8 km/h aus N

-2.4 C

-1.8 C

-1.7 C

-1.8 C

116 W/m

0.00 mm

10:45

-1.6 C

1030.8 hpa

95 %

1.6 km/h aus 114

3.2 km/h aus N

-2.3 C

-1.7 C

-1.6 C

-1.7 C

126 W/m

0.00 mm

10:50

-1.5 C

1030.8 hpa

95 %

0.0 km/h aus 116

3.2 km/h aus N

-2.2 C

-1.6 C

-1.5 C

-1.6 C

119 W/m

0.00 mm

10:55

-1.4 C

1030.8 hpa

96 %

0.0 km/h aus 118

3.2 km/h aus N

-2.0 C

-1.5 C

-1.4 C

-1.5 C

125 W/m

0.00 mm

11:00

-1.5 C

1030.7 hpa

96 %

0.0 km/h aus 117

0.0 km/h aus ---

-2.1 C

-1.6 C

-1.5 C

-1.6 C

114 W/m

0.00 mm

11:05

-1.6 C

1030.7 hpa

96 %

0.0 km/h aus 117

1.6 km/h aus N

-2.1 C

-1.6 C

-1.6 C

-1.6 C

138 W/m

0.00 mm

11:10

-1.5 C

1030.7 hpa

96 %

0.0 km/h aus 117

0.0 km/h aus ---

-2.1 C

-1.6 C

-1.5 C

-1.6 C

151 W/m

0.00 mm

11:15

-1.3 C

1030.4 hpa

96 %

0.0 km/h aus 117

0.0 km/h aus ---

-1.8 C

-1.3 C

-1.3 C

-1.3 C

173 W/m

0.00 mm

11:20

-1.2 C

1030.4 hpa

96 %

0.0 km/h aus 115

1.6 km/h aus N

-1.7 C

-1.2 C

-1.2 C

-1.2 C

152 W/m

0.00 mm

11:25

-1.1 C

1030.4 hpa

96 %

0.0 km/h aus 115

1.6 km/h aus N

-1.6 C

-1.1 C

-1.1 C

-1.1 C

160 W/m

0.00 mm

11:30

-0.8 C

1030.3 hpa

96 %

0.0 km/h aus 115

0.0 km/h aus ---

-1.4 C

-0.9 C

-0.8 C

-0.9 C

181 W/m

0.00 mm

11:35

-0.5 C

1030.3 hpa

96 %

0.0 km/h aus 115

0.0 km/h aus ---

-1.1 C

-0.6 C

-0.5 C

-0.6 C

197 W/m

0.00 mm

11:40

-0.4 C

1030.3 hpa

96 %

0.0 km/h aus 117

0.0 km/h aus ---

-1.0 C

-0.5 C

-0.4 C

-0.5 C

198 W/m

0.00 mm

11:45

-0.1 C

1030.1 hpa

96 %

0.0 km/h aus 116

0.0 km/h aus ---

-0.7 C

-0.2 C

-0.1 C

-0.2 C

200 W/m

0.00 mm

11:50

0.0 C

1030.1 hpa

96 %

0.0 km/h aus 117

0.0 km/h aus ---

-0.6 C

-0.1 C

0.0 C

-0.1 C

212 W/m

0.00 mm

11:55

0.0 C

1030.1 hpa

96 %

0.0 km/h aus 117

0.0 km/h aus ---

-0.6 C

-0.1 C

0.0 C

-0.1 C

196 W/m

0.00 mm

12:00

0.1 C

1029.8 hpa

96 %

0.0 km/h aus 115

0.0 km/h aus ---

-0.5 C

0.0 C

0.1 C

0.0 C

207 W/m

0.00 mm

12:05

0.5 C

1029.8 hpa

96 %

0.0 km/h aus 115

0.0 km/h aus ---

-0.1 C

0.4 C

0.5 C

0.4 C

210 W/m

0.00 mm

12:10

0.4 C

1029.8 hpa

96 %

0.0 km/h aus 117

1.6 km/h aus N

-0.1 C

0.4 C

0.4 C

0.4 C

212 W/m

0.00 mm

12:15

0.7 C

1029.6 hpa

96 %

0.0 km/h aus 116

0.0 km/h aus ---

0.1 C

0.6 C

0.7 C

0.6 C

211 W/m

0.00 mm

12:20

0.9 C

1029.6 hpa

96 %

0.0 km/h aus 117

1.6 km/h aus N

0.4 C

0.9 C

0.9 C

0.9 C

213 W/m

0.00 mm

12:25

1.4 C

1029.6 hpa

96 %

0.0 km/h aus 116

0.0 km/h aus ---

0.8 C

1.4 C

1.4 C

1.4 C

211 W/m

0.00 mm

12:30

1.6 C

1029.4 hpa

96 %

0.0 km/h aus 114

0.0 km/h aus ---

1.0 C

1.6 C

1.6 C

1.6 C

209 W/m

0.00 mm

12:35

1.5 C

1029.4 hpa

96 %

0.0 km/h aus 115

0.0 km/h aus ---

0.9 C

1.5 C

1.5 C

1.5 C

209 W/m

0.00 mm

12:40

2.2 C

1029.4 hpa

96 %

0.0 km/h aus 117

1.6 km/h aus N

1.7 C

2.2 C

2.2 C

2.2 C

207 W/m

0.00 mm

12:45

2.1 C

1029.2 hpa

95 %

0.0 km/h aus 116

0.0 km/h aus ---

1.3 C

2.1 C

2.1 C

2.1 C

203 W/m

0.00 mm

12:50

2.1 C

1029.2 hpa

95 %

1.6 km/h aus 116

4.8 km/h aus N

1.4 C

2.1 C

2.1 C

2.1 C

200 W/m

0.00 mm

12:55

1.9 C

1029.2 hpa

94 %

1.6 km/h aus 117

4.8 km/h aus N

1.1 C

1.9 C

1.9 C

1.9 C

196 W/m

0.25 mm

13:00

2.3 C

1029.0 hpa

95 %

0.0 km/h aus 115

0.0 km/h aus ---

1.6 C

2.3 C

2.3 C

2.3 C

194 W/m

0.00 mm

13:05

2.2 C

1029.0 hpa

94 %

0.0 km/h aus 115

0.0 km/h aus ---

1.4 C

2.2 C

2.2 C

2.2 C

191 W/m

0.00 mm

13:10

2.5 C

1029.0 hpa

94 %

1.6 km/h aus 117

4.8 km/h aus N

1.6 C

2.5 C

2.5 C

2.5 C

187 W/m

0.00 mm

13:15

2.7 C

1028.9 hpa

93 %

3.2 km/h aus 116

4.8 km/h aus N

1.7 C

2.4 C

2.4 C

2.7 C

183 W/m

0.00 mm

13:20

2.6 C

1028.9 hpa

92 %

0.0 km/h aus 117

3.2 km/h aus N

1.4 C

2.6 C

2.6 C

2.6 C

179 W/m

0.00 mm

13:25

2.8 C

1028.9 hpa

92 %

1.6 km/h aus 117

3.2 km/h aus N

1.6 C

2.7 C

2.8 C

2.7 C

166 W/m

0.00 mm

13:30

3.1 C

1028.8 hpa

91 %

0.0 km/h aus 113

3.2 km/h aus N

1.7 C

3.0 C

3.1 C

3.0 C

158 W/m

0.00 mm

13:35

2.9 C

1028.8 hpa

90 %

1.6 km/h aus 116

4.8 km/h aus N

1.4 C

2.8 C

2.9 C

2.8 C

146 W/m

0.00 mm

13:40

2.8 C

1028.8 hpa

91 %

1.6 km/h aus 117

3.2 km/h aus N

1.5 C

2.8 C

2.8 C

2.8 C

134 W/m

0.00 mm

13:45

3.0 C

1028.7 hpa

91 %

3.2 km/h aus 116

4.8 km/h aus N

1.7 C

2.7 C

2.7 C

2.9 C

107 W/m

0.00 mm

13:50

3.0 C

1028.7 hpa

91 %

0.0 km/h aus 116

0.0 km/h aus ---

1.7 C

2.9 C

3.0 C

2.9 C

79 W/m

0.00 mm

13:55

3.1 C

1028.7 hpa

91 %

1.6 km/h aus 115

4.8 km/h aus N

1.7 C

3.0 C

3.1 C

3.0 C

55 W/m

0.00 mm

14:00

3.1 C

1028.7 hpa

91 %

1.6 km/h aus 114

4.8 km/h aus N

1.7 C

3.0 C

3.1 C

3.0 C

44 W/m

0.00 mm

14:05

2.9 C

1028.7 hpa

91 %

3.2 km/h aus 115

4.8 km/h aus N

1.6 C

2.6 C

2.7 C

2.9 C

39 W/m

0.00 mm

14:10

2.8 C

1028.7 hpa

91 %

1.6 km/h aus 118

3.2 km/h aus N

1.5 C

2.8 C

2.8 C

2.8 C

36 W/m

0.00 mm

14:15

2.8 C

1028.4 hpa

91 %

1.6 km/h aus 117

3.2 km/h aus N

1.5 C

2.7 C

2.8 C

2.7 C

35 W/m

0.00 mm

14:20

2.8 C

1028.4 hpa

91 %

1.6 km/h aus 117

3.2 km/h aus N

1.5 C

2.8 C

2.8 C

2.8 C

33 W/m

0.00 mm

14:25

2.8 C

1028.4 hpa

91 %

1.6 km/h aus 116

3.2 km/h aus N

1.5 C

2.7 C

2.8 C

2.7 C

33 W/m

0.00 mm

14:30

2.8 C

1028.2 hpa

91 %

1.6 km/h aus 114

3.2 km/h aus N

1.5 C

2.8 C

2.8 C

2.8 C

32 W/m

0.00 mm

14:35

2.9 C

1028.2 hpa

91 %

1.6 km/h aus 113

3.2 km/h aus N

1.6 C

2.8 C

2.9 C

2.8 C

32 W/m

0.00 mm

14:40

2.9 C

1028.2 hpa

91 %

1.6 km/h aus 116

3.2 km/h aus N

1.6 C

2.8 C

2.9 C

2.8 C

30 W/m

0.00 mm

14:45

2.9 C

1028.2 hpa

90 %

1.6 km/h aus 117

3.2 km/h aus N

1.4 C

2.8 C

2.9 C

2.8 C

29 W/m

0.00 mm

14:50

2.9 C

1028.2 hpa

90 %

0.0 km/h aus 116

0.0 km/h aus ---

1.4 C

2.8 C

2.9 C

2.8 C

28 W/m

0.00 mm

14:55

2.8 C

1028.2 hpa

90 %

0.0 km/h aus 117

0.0 km/h aus ---

1.4 C

2.8 C

2.8 C

2.8 C

26 W/m

0.00 mm

15:00

2.7 C

1028.2 hpa

90 %

0.0 km/h aus 117

0.0 km/h aus ---

1.2 C

2.7 C

2.7 C

2.7 C

26 W/m

0.00 mm

15:05

2.7 C

1028.2 hpa

90 %

0.0 km/h aus 114

0.0 km/h aus ---

1.2 C

2.6 C

2.7 C

2.6 C

25 W/m

0.00 mm

15:10

2.7 C

1028.2 hpa

90 %

0.0 km/h aus 114

0.0 km/h aus ---

1.2 C

2.6 C

2.7 C

2.6 C

24 W/m

0.00 mm

15:15

2.6 C

1028.2 hpa

90 %

0.0 km/h aus 115

0.0 km/h aus ---

1.1 C

2.6 C

2.6 C

2.6 C

22 W/m

0.00 mm

15:20

2.6 C

1028.2 hpa

90 %

0.0 km/h aus 117

0.0 km/h aus ---

1.1 C

2.6 C

2.6 C

2.6 C

21 W/m

0.00 mm

15:25

2.6 C

1028.2 hpa

90 %

0.0 km/h aus 117

0.0 km/h aus ---

1.1 C

2.5 C

2.6 C

2.5 C

19 W/m

0.00 mm

15:30

2.5 C

1028.2 hpa

90 %

0.0 km/h aus 117

0.0 km/h aus ---

1.0 C

2.4 C

2.5 C

2.4 C

18 W/m

0.00 mm

15:35

2.4 C

1028.2 hpa

90 %

0.0 km/h aus 116

0.0 km/h aus ---

0.9 C

2.3 C

2.4 C

2.3 C

17 W/m

0.00 mm

15:40

2.3 C

1028.2 hpa

90 %

0.0 km/h aus 117

0.0 km/h aus ---

0.9 C

2.3 C

2.3 C

2.3 C

15 W/m

0.00 mm

15:45

2.2 C

1028.2 hpa

89 %

0.0 km/h aus 115

0.0 km/h aus ---

0.6 C

2.2 C

2.2 C

2.2 C

13 W/m

0.00 mm

15:50

2.1 C

1028.2 hpa

89 %

0.0 km/h aus 114

0.0 km/h aus ---

0.5 C

2.1 C

2.1 C

2.1 C

12 W/m

0.00 mm

15:55

2.0 C

1028.2 hpa

89 %

0.0 km/h aus 114

0.0 km/h aus ---

0.4 C

1.9 C

2.0 C

1.9 C

10 W/m

0.00 mm

16:00

1.9 C

1028.2 hpa

89 %

0.0 km/h aus 116

0.0 km/h aus ---

0.3 C

1.8 C

1.9 C

1.8 C

8 W/m

0.00 mm

16:05

1.8 C

1028.2 hpa

89 %

0.0 km/h aus 117

3.2 km/h aus W

0.2 C

1.7 C

1.8 C

1.7 C

7 W/m

0.00 mm

16:10

1.7 C

1028.2 hpa

89 %

0.0 km/h aus 117

0.0 km/h aus ---

0.0 C

1.6 C

1.7 C

1.6 C

5 W/m

0.00 mm

16:15

1.6 C

1028.2 hpa

89 %

0.0 km/h aus 116

0.0 km/h aus ---

-0.1 C

1.5 C

1.6 C

1.5 C

0 W/m

0.00 mm

16:20

1.4 C

1028.2 hpa

89 %

0.0 km/h aus 118

0.0 km/h aus ---

-0.2 C

1.3 C

1.4 C

1.3 C

0 W/m

0.00 mm

16:25

1.2 C

1028.2 hpa

89 %

0.0 km/h aus 117

0.0 km/h aus ---

-0.4 C

1.1 C

1.2 C

1.1 C

0 W/m

0.00 mm

16:30

1.0 C

1028.2 hpa

89 %

0.0 km/h aus 114

0.0 km/h aus ---

-0.6 C

0.9 C

1.0 C

0.9 C

0 W/m

0.00 mm

16:35

0.8 C

1028.2 hpa

89 %

0.0 km/h aus 114

0.0 km/h aus ---

-0.8 C

0.7 C

0.8 C

0.7 C

0 W/m

0.00 mm

16:40

0.7 C

1028.2 hpa

89 %

0.0 km/h aus 115

0.0 km/h aus ---

-0.9 C

0.6 C

0.7 C

0.6 C

0 W/m

0.00 mm

16:45

0.4 C

1028.2 hpa

89 %

0.0 km/h aus 117

0.0 km/h aus ---

-1.2 C

0.3 C

0.4 C

0.3 C

0 W/m

0.00 mm

16:50

0.2 C

1028.2 hpa

89 %

0.0 km/h aus 117

0.0 km/h aus ---

-1.4 C

0.1 C

0.2 C

0.1 C

0 W/m

0.00 mm

16:55

-0.1 C

1028.2 hpa

89 %

0.0 km/h aus 117

0.0 km/h aus ---

-1.7 C

-0.1 C

-0.1 C

-0.1 C

0 W/m

0.00 mm

17:00

-0.2 C

1028.1 hpa

89 %

0.0 km/h aus 117

0.0 km/h aus ---

-1.8 C

-0.2 C

-0.2 C

-0.2 C

0 W/m

0.00 mm

17:05

-0.3 C

1028.1 hpa

89 %

0.0 km/h aus 117

0.0 km/h aus ---

-1.9 C

-0.4 C

-0.3 C

-0.4 C

0 W/m

0.00 mm

17:10

-0.4 C

1028.1 hpa

89 %

0.0 km/h aus 116

0.0 km/h aus ---

-2.0 C

-0.6 C

-0.4 C

-0.6 C

0 W/m

0.00 mm

17:15

-0.5 C

1028.1 hpa

89 %

0.0 km/h aus 116

0.0 km/h aus ---

-2.1 C

-0.6 C

-0.5 C

-0.6 C

0 W/m

0.00 mm

17:20

-0.7 C

1028.1 hpa

89 %

0.0 km/h aus 114

0.0 km/h aus ---

-2.3 C

-0.8 C

-0.7 C

-0.8 C

0 W/m

0.00 mm

17:25

-0.8 C

1028.1 hpa

89 %

0.0 km/h aus 116

0.0 km/h aus ---

-2.4 C

-0.9 C

-0.8 C

-0.9 C

0 W/m

0.00 mm

17:30

-0.9 C

1028.1 hpa

89 %

0.0 km/h aus 113

3.2 km/h aus W

-2.5 C

-1.0 C

-0.9 C

-1.0 C

0 W/m

0.00 mm

17:35

-1.0 C

1028.1 hpa

89 %

0.0 km/h aus 116

3.2 km/h aus W

-2.6 C

-1.1 C

-1.0 C

-1.1 C

0 W/m

0.00 mm

17:40

-1.1 C

1028.1 hpa

90 %

0.0 km/h aus 115

0.0 km/h aus ---

-2.5 C

-1.2 C

-1.1 C

-1.2 C

0 W/m

0.00 mm

17:45

-1.2 C

1028.0 hpa

90 %

0.0 km/h aus 115

0.0 km/h aus ---

-2.6 C

-1.3 C

-1.2 C

-1.3 C

0 W/m

0.00 mm

17:50

-1.3 C

1028.0 hpa

89 %

1.6 km/h aus 116

3.2 km/h aus W

-2.9 C

-1.4 C

-1.3 C

-1.4 C

0 W/m

0.00 mm

17:55

-1.4 C

1028.0 hpa

90 %

4.8 km/h aus 117

8.0 km/h aus SE

-2.8 C

-3.2 C

-3.1 C

-1.5 C

0 W/m

0.00 mm

18:00

-1.4 C

1027.8 hpa

90 %

6.4 km/h aus 117

8.0 km/h aus SE

-2.9 C

-3.9 C

-3.8 C

-1.6 C

0 W/m

0.00 mm

18:05

-1.5 C

1027.8 hpa

90 %

3.2 km/h aus 114

6.4 km/h aus SE

-2.9 C

-2.3 C

-2.2 C

-1.6 C

0 W/m

0.00 mm

18:10

-1.6 C

1027.8 hpa

90 %

3.2 km/h aus 114

8.0 km/h aus SE

-3.0 C

-2.4 C

-2.3 C

-1.7 C

0 W/m

0.00 mm

18:15

-1.6 C

1027.7 hpa

90 %

4.8 km/h aus 114

8.0 km/h aus ESE

-3.0 C

-3.4 C

-3.3 C

-1.7 C

0 W/m

0.00 mm

18:20

-1.6 C

1027.7 hpa

90 %

3.2 km/h aus 114

8.0 km/h aus SE

-3.0 C

-2.4 C

-2.3 C

-1.7 C

0 W/m

0.00 mm

18:25

-1.6 C

1027.7 hpa

90 %

3.2 km/h aus 117

4.8 km/h aus SE

-3.0 C

-2.4 C

-2.3 C

-1.7 C

0 W/m

0.00 mm

18:30

-1.6 C

1027.6 hpa

91 %

1.6 km/h aus 117

3.2 km/h aus SE

-2.8 C

-1.7 C

-1.6 C

-1.7 C

0 W/m

0.00 mm

18:35

-1.6 C

1027.6 hpa

91 %

1.6 km/h aus 117

4.8 km/h aus SE

-2.8 C

-1.7 C

-1.6 C

-1.7 C

0 W/m

0.00 mm

18:40

-1.5 C

1027.6 hpa

91 %

1.6 km/h aus 117

3.2 km/h aus SE

-2.8 C

-1.6 C

-1.5 C

-1.6 C

0 W/m

0.00 mm

18:45

-1.5 C

1027.6 hpa

91 %

0.0 km/h aus 116

0.0 km/h aus ---

-2.8 C

-1.6 C

-1.5 C

-1.6 C

0 W/m

0.00 mm

18:50

-1.5 C

1027.6 hpa

91 %

0.0 km/h aus 116

0.0 km/h aus ---

-2.8 C

-1.6 C

-1.5 C

-1.6 C

0 W/m

0.00 mm

18:55

-1.4 C

1027.6 hpa

91 %

0.0 km/h aus 115

0.0 km/h aus ---

-2.7 C

-1.6 C

-1.4 C

-1.6 C

0 W/m

0.00 mm

19:00

-1.4 C

1027.6 hpa

91 %

0.0 km/h aus 114

0.0 km/h aus ---

-2.7 C

-1.6 C

-1.4 C

-1.6 C

0 W/m

0.00 mm

19:05

-1.4 C

1027.6 hpa

91 %

0.0 km/h aus 113

0.0 km/h aus ---

-2.7 C

-1.6 C

-1.4 C

-1.6 C

0 W/m

0.00 mm

19:10

-1.4 C

1027.6 hpa

91 %

0.0 km/h aus 116

0.0 km/h aus ---

-2.7 C

-1.6 C

-1.4 C

-1.6 C

0 W/m

0.00 mm

19:15

-1.5 C

1027.6 hpa

91 %

0.0 km/h aus 116

0.0 km/h aus ---

-2.8 C

-1.6 C

-1.5 C

-1.6 C

0 W/m

0.00 mm

19:20

-1.6 C

1027.6 hpa

91 %

0.0 km/h aus 117

0.0 km/h aus ---

-2.8 C

-1.7 C

-1.6 C

-1.7 C

0 W/m

0.00 mm

19:25

-1.6 C

1027.6 hpa

91 %

0.0 km/h aus 116

0.0 km/h aus ---

-2.9 C

-1.7 C

-1.6 C

-1.7 C

0 W/m

0.00 mm

19:30

-1.7 C

1027.5 hpa

91 %

0.0 km/h aus 117

0.0 km/h aus ---

-2.9 C

-1.8 C

-1.7 C

-1.8 C

0 W/m

0.00 mm

19:35

-1.7 C

1027.5 hpa

91 %

0.0 km/h aus 117

0.0 km/h aus ---

-3.0 C

-1.8 C

-1.7 C

-1.8 C

0 W/m

0.00 mm

19:40

-1.8 C

1027.5 hpa

91 %

0.0 km/h aus 118

0.0 km/h aus ---

-3.1 C

-1.9 C

-1.8 C

-1.9 C

0 W/m

0.00 mm

19:45

-1.9 C

1027.3 hpa

91 %

0.0 km/h aus 113

0.0 km/h aus ---

-3.2 C

-2.0 C

-1.9 C

-2.0 C

0 W/m

0.00 mm

19:50

-1.9 C

1027.3 hpa

91 %

0.0 km/h aus 115

0.0 km/h aus ---

-3.2 C

-2.1 C

-1.9 C

-2.1 C

0 W/m

0.00 mm

19:55

-2.0 C

1027.3 hpa

91 %

0.0 km/h aus 114

0.0 km/h aus ---

-3.3 C

-2.1 C

-2.0 C

-2.1 C

0 W/m

0.00 mm

20:00

-2.1 C

1027.3 hpa

91 %

0.0 km/h aus 117

0.0 km/h aus ---

-3.4 C

-2.2 C

-2.1 C

-2.2 C

0 W/m

0.00 mm

20:05

-2.2 C

1027.3 hpa

91 %

0.0 km/h aus 116

0.0 km/h aus ---

-3.4 C

-2.3 C

-2.2 C

-2.3 C

0 W/m

0.00 mm

20:10

-2.2 C

1027.3 hpa

91 %

0.0 km/h aus 117

0.0 km/h aus ---

-3.5 C

-2.3 C

-2.2 C

-2.3 C

0 W/m

0.00 mm

20:15

-2.3 C

1027.3 hpa

91 %

0.0 km/h aus 117

0.0 km/h aus ---

-3.5 C

-2.4 C

-2.3 C

-2.4 C

0 W/m

0.00 mm

20:20

-2.3 C

1027.3 hpa

91 %

0.0 km/h aus 117

0.0 km/h aus ---

-3.5 C

-2.4 C

-2.3 C

-2.4 C

0 W/m

0.00 mm

20:25

-2.3 C

1027.3 hpa

91 %

0.0 km/h aus 117

0.0 km/h aus ---

-3.6 C

-2.4 C

-2.3 C

-2.4 C

0 W/m

0.00 mm

20:30

-2.4 C

1027.3 hpa

91 %

0.0 km/h aus 116

0.0 km/h aus ---

-3.7 C

-2.5 C

-2.4 C

-2.5 C

0 W/m

0.00 mm

20:35

-2.4 C

1027.3 hpa

92 %

0.0 km/h aus 115

0.0 km/h aus ---

-3.6 C

-2.5 C

-2.4 C

-2.5 C

0 W/m

0.00 mm

20:40

-2.4 C

1027.3 hpa

92 %

0.0 km/h aus 114

0.0 km/h aus ---

-3.6 C

-2.5 C

-2.4 C

-2.5 C

0 W/m

0.00 mm

20:45

-2.5 C

1027.2 hpa

92 %

0.0 km/h aus 115

0.0 km/h aus ---

-3.6 C

-2.6 C

-2.5 C

-2.6 C

0 W/m

0.00 mm

20:50

-2.6 C

1027.2 hpa

91 %

0.0 km/h aus 116

0.0 km/h aus ---

-3.8 C

-2.6 C

-2.6 C

-2.6 C

0 W/m

0.00 mm

20:55

-2.6 C

1027.2 hpa

91 %

0.0 km/h aus 117

0.0 km/h aus ---

-3.8 C

-2.6 C

-2.6 C

-2.6 C

0 W/m

0.00 mm

21:00

-2.6 C

1027.1 hpa

92 %

0.0 km/h aus 116

0.0 km/h aus ---

-3.7 C

-2.7 C

-2.6 C

-2.7 C

0 W/m

0.00 mm

21:05

-2.7 C

1027.1 hpa

92 %

0.0 km/h aus 116

0.0 km/h aus ---

-3.8 C

-2.7 C

-2.7 C

-2.7 C

0 W/m

0.00 mm

21:10

-2.7 C

1027.1 hpa

92 %

0.0 km/h aus 117

0.0 km/h aus ---

-3.8 C

-2.7 C

-2.7 C

-2.7 C

0 W/m

0.00 mm

21:15

-2.7 C

1026.8 hpa

92 %

0.0 km/h aus 117

0.0 km/h aus ---

-3.8 C

-2.8 C

-2.7 C

-2.8 C

0 W/m

0.00 mm

21:20

-2.8 C

1026.8 hpa

92 %

0.0 km/h aus 117

0.0 km/h aus ---

-3.9 C

-2.8 C

-2.8 C

-2.8 C

0 W/m

0.00 mm

21:25

-2.8 C

1026.8 hpa

92 %

0.0 km/h aus 116

0.0 km/h aus ---

-3.9 C

-2.8 C

-2.8 C

-2.8 C

0 W/m

0.00 mm

21:30

-2.8 C

1026.8 hpa

92 %

0.0 km/h aus 114

0.0 km/h aus ---

-4.0 C

-2.9 C

-2.8 C

-2.9 C

0 W/m

0.00 mm

21:35

-2.8 C

1026.8 hpa

92 %

0.0 km/h aus 114

0.0 km/h aus ---

-4.0 C

-2.9 C

-2.8 C

-2.9 C

0 W/m

0.00 mm

21:40

-2.9 C

1026.8 hpa

92 %

1.6 km/h aus 116

4.8 km/h aus SE

-4.0 C

-2.9 C

-2.9 C

-2.9 C

0 W/m

0.00 mm

21:45

-2.9 C

1026.8 hpa

92 %

3.2 km/h aus 117

6.4 km/h aus SE

-4.0 C

-3.8 C

-3.7 C

-2.9 C

0 W/m

0.00 mm

21:50

-2.9 C

1026.8 hpa

92 %

3.2 km/h aus 118

4.8 km/h aus SE

-4.1 C

-3.9 C

-3.8 C

-3.0 C

0 W/m

0.00 mm

21:55

-2.9 C

1026.8 hpa

92 %

4.8 km/h aus 117

6.4 km/h aus SE

-4.1 C

-4.9 C

-4.8 C

-3.0 C

0 W/m

0.00 mm

22:00

-3.0 C

1026.8 hpa

92 %

1.6 km/h aus 117

4.8 km/h aus SE

-4.1 C

-3.1 C

-3.0 C

-3.1 C

0 W/m

0.00 mm

22:05

-3.0 C

1026.8 hpa

92 %

0.0 km/h aus 117

1.6 km/h aus SE

-4.1 C

-3.1 C

-3.0 C

-3.1 C

0 W/m

0.00 mm

22:10

-3.1 C

1026.8 hpa

92 %

1.6 km/h aus 116

3.2 km/h aus SE

-4.2 C

-3.1 C

-3.1 C

-3.1 C

0 W/m

0.00 mm

22:15

-3.1 C

1026.9 hpa

92 %

1.6 km/h aus 117

3.2 km/h aus SE

-4.2 C

-3.1 C

-3.1 C

-3.1 C

0 W/m

0.00 mm

22:20

-3.1 C

1026.9 hpa

92 %

1.6 km/h aus 115

3.2 km/h aus SE

-4.2 C

-3.1 C

-3.1 C

-3.1 C

0 W/m

0.00 mm

22:25

-3.1 C

1026.9 hpa

92 %

1.6 km/h aus 114

3.2 km/h aus SE

-4.2 C

-3.1 C

-3.1 C

-3.1 C

0 W/m

0.00 mm

22:30

-3.1 C

1026.9 hpa

92 %

0.0 km/h aus 114

1.6 km/h aus SE

-4.2 C

-3.2 C

-3.1 C

-3.2 C

0 W/m

0.00 mm

22:35

-3.1 C

1026.9 hpa

92 %

0.0 km/h aus 116

0.0 km/h aus ---

-4.2 C

-3.2 C

-3.1 C

-3.2 C

0 W/m

0.00 mm

22:40

-3.2 C

1026.9 hpa

92 %

0.0 km/h aus 117

0.0 km/h aus ---

-4.3 C

-3.2 C

-3.2 C

-3.2 C

0 W/m

0.00 mm

22:45

-3.2 C

1026.7 hpa

92 %

0.0 km/h aus 117

0.0 km/h aus ---

-4.3 C

-3.3 C

-3.2 C

-3.3 C

0 W/m

0.00 mm

22:50

-3.3 C

1026.7 hpa

92 %

0.0 km/h aus 115

0.0 km/h aus ---

-4.4 C

-3.3 C

-3.3 C

-3.3 C

0 W/m

0.00 mm

22:55

-3.3 C

1026.7 hpa

92 %

1.6 km/h aus 118

3.2 km/h aus SE

-4.4 C

-3.4 C

-3.3 C

-3.4 C

0 W/m

0.00 mm

23:00

-3.4 C

1026.7 hpa

92 %

1.6 km/h aus 116

3.2 km/h aus SE

-4.5 C

-3.4 C

-3.4 C

-3.4 C

0 W/m

0.00 mm

23:05

-3.4 C

1026.7 hpa

92 %

3.2 km/h aus 117

4.8 km/h aus SE

-4.6 C

-4.4 C

-4.3 C

-3.5 C

0 W/m

0.00 mm

23:10

-3.4 C

1026.7 hpa

92 %

3.2 km/h aus 116

4.8 km/h aus SE

-4.6 C

-4.4 C

-4.3 C

-3.5 C

0 W/m

0.00 mm

23:15

-3.5 C

1026.7 hpa

92 %

3.2 km/h aus 113

4.8 km/h aus SE

-4.6 C

-4.5 C

-4.4 C

-3.6 C

0 W/m

0.00 mm

23:20

-3.5 C

1026.7 hpa

92 %

1.6 km/h aus 114

4.8 km/h aus SE

-4.6 C

-3.6 C

-3.5 C

-3.6 C

0 W/m

0.00 mm

23:25

-3.4 C

1026.7 hpa

92 %

3.2 km/h aus 113

4.8 km/h aus SE

-4.6 C

-4.4 C

-4.3 C

-3.5 C

0 W/m

0.00 mm

23:30

-3.4 C

1026.7 hpa

92 %

1.6 km/h aus 116

3.2 km/h aus SE

-4.5 C

-3.4 C

-3.4 C

-3.4 C

0 W/m

0.00 mm

23:35

-3.3 C

1026.7 hpa

92 %

1.6 km/h aus 117

3.2 km/h aus SE

-4.4 C

-3.4 C

-3.3 C

-3.4 C

0 W/m

0.00 mm

23:40

-3.3 C

1026.7 hpa

92 %

1.6 km/h aus 116

3.2 km/h aus SE

-4.4 C

-3.4 C

-3.3 C

-3.4 C

0 W/m

0.00 mm

23:45

-3.3 C

1026.7 hpa

92 %

0.0 km/h aus 116

3.2 km/h aus SE

-4.4 C

-3.3 C

-3.3 C

-3.3 C

0 W/m

0.00 mm

23:50

-3.3 C

1026.7 hpa

92 %

0.0 km/h aus 117

0.0 km/h aus ---

-4.4 C

-3.3 C

-3.3 C

-3.3 C

0 W/m

0.00 mm

23:55

-3.3 C

1026.7 hpa

92 %

0.0 km/h aus 116

0.0 km/h aus ---

-4.4 C

-3.4 C

-3.3 C

-3.4 C

0 W/m

0.00 mm